Location: Izdebno
(52.6670°N, 16.2170°E)
Time: 05:49:09
(UTC+01:00)

BlueWalker 3 - Pass Details

Date: 30 November 2023
Orbit: 485 x 500 km, 53.2° (Epoch: 29 February)

Event Time Altitude Azimuth Distance (km) Brightness Sun altitude
Exits shadow 04:21:01 25° 99° (E) 1,033 4.1 -29.4°
Drops below altitude 10° 04:22:44 10° 100° (E) 1,698 5.5 -29.2°
Enters shadow 05:19:58 -67° 294° (WNW) 12,290 8.9 -20.5°
